Theta_e
311 311 311 310 310 310 310 310 310 310 310 309 310 309 309 309 309 309 309 309 309 308 308 308 308 309 309 308 308 309 309 309 309 309 309 310 309 309 309 309 309 309 309 309 309 308 308 308 308 308 308 308 307 307 307 307 307 306 306 306 305 305 305 304 303 303 303 303 303 303 304 304 304 304 304 304 304 304 304 304 304 304 304 304 303
310 310 310 309 309 309 309 309 309 309 309 308 308 308 308 308 308 308 307 307 307 307 307 307 307 307 307 307 307 307 307 307 308 308 308 308 308 307 307 308 308 308 308 308 308 307 307 307 308 308 307 307 307 306 306 305 305 304 304 304 304 304 304 304 303 302 302 303 303 303 303 303 303 303 303 303 303 303 303 303 303 303 303 303 303
309 309 309 309 308 308 308 308 308 307 307 307 307 307 307 307 307 307 306 306 306 306 306 306 306 306 306 306 306 306 306 306 307 307 306 306 306 306 306 306 306 307 306 306 306 306 305 305 305 305 305 305 305 305 304 304 303 303 303 303 304 304 304 304 303 302 302 302 303 303 303 303 303 303 303 303 302 302 302 302 302 302 302 302 302
309 309 308 308 307 307 307 307 307 307 306 306 306 306 306 306 306 306 305 305 305 305 305 305 305 305 305 305 305 305 305 305 305 305 304 304 304 303 303 303 303 304 304 304 304 304 304 303 303 302 302 302 302 302 302 302 302 302 302 303 303 303 303 303 303 302 302 302 302 302 302 302 302 302 302 302 302 301 301 301 301 300 300 300 301
308 307 307 307 306 306 307 306 306 306 305 305 305 305 305 305 305 305 304 304 304 304 304 304 304 304 304 304 304 303 303 303 303 303 303 302 302 302 301 301 301 301 301 301 301 301 301 301 300 300 300 300 300 300 301 301 301 302 302 302 302 302 302 302 302 302 301 301 301 302 301 301 301 301 301 300 300 300 300 300 299 299 299 299 299
306 306 306 306 306 306 306 305 305 304 304 304 304 304 304 304 304 304 304 304 304 304 304 303 303 303 303 303 302 302 301 301 301 301 301 301 301 301 300 300 299 299 299 299 299 299 299 299 298 298 298 299 299 299 300 300 300 301 301 301 301 301 301 301 301 301 301 300 300 301 301 300 300 300 300 300 299 299 298 298 298 297 297 297 297
306 305 305 305 305 304 303 302 302 302 303 303 303 303 303 303 303 303 303 302 302 302 301 301 301 301 301 300 300 300 300 299 300 300 299 299 299 299 299 299 299 299 299 299 298 298 298 298 298 298 297 298 298 298 298 299 299 299 300 300 300 300 300 300 300 300 300 299 299 299 300 300 299 299 299 299 298 298 297 296 296 296 296 295 296
304 304 303 303 302 301 301 301 302 302 302 302 302 302 302 302 301 301 300 300 299 299 299 298 298 298 298 298 297 297 297 297 298 298 298 298 298 298 298 298 298 298 298 298 298 298 298 298 297 297 297 297 297 297 297 297 298 298 298 299 299 299 299 299 299 299 299 298 298 299 299 299 299 298 298 298 297 296 296 295 295 295 295 295 295
303 302 302 301 300 300 301 301 301 301 301 300 300 300 300 299 299 298 298 297 297 296 296 296 296 296 296 296 295 295 295 296 296 296 296 297 297 297 297 297 297 297 297 297 297 297 297 297 297 297 297 297 297 297 297 297 297 297 297 298 298 298 298 298 298 298 298 298 298 298 298 298 298 298 297 297 296 296 296 295 294 294 294 293 294
302 301 301 300 300 300 300 300 300 299 299 298 298 297 297 297 296 296 296 296 295 295 295 295 295 295 294 294 294 294 294 294 294 294 295 295 295 295 295 295 295 295 296 295 295 295 295 295 296 296 296 296 296 297 297 297 297 297 297 297 297 297 297 297 297 297 297 297 297 297 297 297 298 298 297 297 297 297 296 295 293 293 293 292 292
301 301 300 299 299 299 298 298 298 297 297 296 296 296 296 296 295 295 295 295 295 295 294 294 294 294 294 293 293 293 293 293 293 293 293 294 293 294 294 294 294 294 294 294 294 294 294 294 295 295 295 295 295 296 296 296 296 296 296 296 296 296 296 296 296 296 296 296 296 297 297 297 297 298 297 297 297 297 297 296 294 293 293 291 292
300 300 299 298 298 297 297 297 296 296 296 295 295 295 295 295 295 295 295 294 294 294 294 293 293 293 293 293 293 293 293 293 293 293 293 293 293 293 293 293 293 293 293 293 293 293 294 294 294 294 294 294 294 295 295 295 295 296 296 296 295 295 295 296 296 296 296 296 296 296 296 296 296 297 297 297 297 297 297 296 295 293 293 292 292
299 298 297 297 297 296 296 296 295 295 295 295 295 294 294 294 294 294 294 293 293 293 293 293 293 293 293 293 293 293 293 292 292 292 292 292 292 292 292 292 292 292 292 292 292 292 292 293 293 293 292 293 293 293 294 294 294 295 295 295 295 295 295 295 295 295 295 295 295 295 296 296 296 296 296 296 296 296 296 296 295 294 293 292 292
297 297 296 296 295 295 295 295 295 294 294 294 294 293 293 293 293 293 293 293 293 293 293 293 293 292 292 292 292 292 292 292 291 291 291 291 291 291 291 291 291 290 290 291 291 291 291 291 292 291 291 291 292 292 293 293 293 294 294 294 294 294 294 294 294 294 294 294 295 295 295 295 295 295 296 296 296 295 295 295 295 294 293 293 293
295 295 295 295 295 294 294 294 294 293 293 293 293 293 293 293 293 293 293 293 293 293 292 292 292 292 291 291 291 291 290 290 290 290 290 290 290 290 290 290 290 289 289 289 290 290 290 290 290 290 290 290 290 291 292 292 293 293 293 293 293 293 293 293 293 293 293 293 294 294 294 294 294 294 295 295 294 295 295 295 295 295 294 294 293
294 294 294 294 294 294 293 293 293 293 293 292 292 292 292 292 292 293 292 292 292 292 291 291 290 290 290 290 289 289 289 289 289 289 289 289 289 289 289 289 289 289 289 289 289 289 289 289 289 289 290 290 290 290 291 292 292 292 292 292 292 292 293 293 292 292 292 292 293 293 293 293 293 293 293 293 294 294 294 294 294 294 293 293 292
293 293 293 293 293 293 292 292 292 292 292 292 292 292 292 292 292 292 291 291 291 290 290 289 289 289 289 289 289 289 289 289 289 289 289 289 289 289 289 289 289 289 288 288 288 288 289 289 289 289 289 289 289 289 290 291 291 291 292 292 292 292 292 292 292 291 291 292 292 292 292 292 292 292 292 293 293 293 293 293 293 293 292 292 292
291 292 292 292 292 292 292 292 292 292 292 292 292 292 291 291 290 290 289 289 289 289 289 288 288 288 288 288 288 288 288 288 288 288 288 288 288 288 288 288 288 288 288 288 288 288 288 288 288 288 289 289 289 289 289 290 291 291 291 291 291 291 291 291 291 291 291 291 291 291 291 291 291 291 292 292 292 292 292 293 293 293 292 292 292
291 291 291 291 291 291 291 291 292 292 292 291 291 291 290 290 289 289 288 288 288 288 288 288 288 288 288 288 288 288 288 288 288 288 288 288 288 288 288 288 288 288 288 288 288 288 288 288 288 288 288 288 288 288 288 289 290 290 290 290 290 290 290 290 290 290 290 290 290 290 290 290 290 291 291 291 291 291 292 292 292 292 292 292 292
290 291 291 291 291 291 291 291 291 291 291 290 290 289 289 289 288 288 288 287 287 287 287 287 288 288 288 288 287 287 287 287 287 287 287 287 287 287 287 288 288 288 288 288 288 288 288 288 287 287 287 287 287 287 288 288 288 289 289 289 289 289 289 289 289 289 289 289 290 290 290 290 290 290 290 290 290 290 291 291 291 291 291 291 292
290 290 290 290 290 290 290 290 290 290 290 289 289 288 288 287 287 287 287 287 287 287 287 287 287 288 287 287 287 287 287 286 286 286 286 286 286 286 287 287 288 288 288 288 288 288 287 287 287 287 287 286 287 287 287 287 288 288 288 288 288 288 288 288 288 288 288 288 289 289 289 289 289 290 290 290 290 290 290 290 290 290 291 291 291
290 290 290 289 289 290 289 289 289 289 289 288 288 288 287 287 287 286 286 287 287 286 286 286 287 287 287 287 286 286 286 286 285 285 285 285 285 285 286 287 288 288 288 287 287 287 286 286 286 286 286 286 286 286 287 287 287 287 287 287 287 287 287 287 287 287 287 288 288 288 289 289 289 290 289 290 290 290 290 290 290 290 290 290 290
289 289 289 289 289 289 288 288 288 288 288 287 287 287 286 286 286 286 286 286 286 285 285 285 286 286 286 286 286 286 285 285 284 284 284 284 284 285 286 286 286 286 285 285 285 285 285 285 284 285 285 285 285 286 286 286 286 286 286 286 286 286 287 287 287 287 287 287 288 288 288 289 289 289 289 289 290 290 290 290 290 290 290 290 290
289 288 288 288 288 288 287 287 287 287 286 286 286 286 286 286 286 285 285 285 284 284 284 284 284 284 284 285 285 285 284 284 284 283 282 283 283 284 284 284 283 283 284 283 284 284 284 284 284 284 284 284 285 285 285 285 285 285 285 285 285 286 286 286 286 287 287 287 288 288 288 288 289 289 289 289 289 289 289 289 289 289 290 289 290
288 287 287 287 287 286 286 286 286 286 285 285 285 285 285 285 284 284 284 283 283 282 282 282 282 282 281 282 283 284 283 282 282 282 281 281 282 282 282 282 282 283 283 283 283 283 283 283 283 283 283 283 284 284 284 284 284 284 284 285 285 286 286 286 286 287 287 287 287 288 288 288 288 289 289 289 289 289 289 289 289 289 289 289 289
287 286 286 286 286 285 285 285 285 285 285 285 285 284 284 283 283 283 283 282 281 281 280 280 280 280 280 280 280 281 281 280 280 280 281 281 281 281 281 281 281 281 282 282 282 282 282 283 283 283 283 283 283 283 283 283 283 284 284 285 285 285 286 286 286 287 287 287 287 288 288 288 288 288 288 288 289 289 289 289 289 289 288 288 288
286 285 285 285 285 285 285 285 284 284 284 284 284 284 283 282 282 282 281 280 280 279 279 279 279 279 279 279 279 279 279 279 279 280 280 280 280 279 279 280 280 280 281 281 281 281 282 282 282 282 282 282 282 282 283 283 283 284 284 285 285 285 285 286 286 287 287 287 287 288 288 288 288 288 288 288 288 288 288 288 288 288 288 288 287
285 285 284 284 284 283 283 283 283 284 284 284 284 283 282 282 281 281 280 279 279 279 278 278 278 278 278 278 278 278 278 279 279 279 279 279 279 278 279 279 279 280 280 280 280 281 281 281 281 281 281 281 282 282 283 283 284 284 284 285 285 285 285 286 286 287 287 287 288 288 288 288 288 288 288 288 288 288 288 288 288 288 288 287 287
284 284 283 283 282 282 282 282 282 283 283 283 283 282 282 281 280 279 279 278 278 278 278 278 278 277 277 278 278 278 278 278 278 278 278 278 278 278 278 279 279 279 279 279 280 280 280 280 280 281 281 282 282 282 283 283 284 285 285 285 285 286 286 286 287 287 287 287 288 288 287 287 287 287 287 288 288 288 288 288 288 287 287 287 286
283 283 282 282 281 281 282 282 282 282 282 283 283 282 281 281 280 279 278 277 277 277 277 277 277 277 277 277 277 277 277 277 277 277 277 277 278 278 278 278 278 278 279 279 279 280 280 280 280 280 281 282 282 283 283 284 284 284 284 284 285 285 285 286 286 286 286 287 287 287 287 287 287 287 288 288 288 288 288 288 287 287 287 286 286
282 281 281 281 281 281 281 282 282 282 281 281 282 282 281 281 279 278 277 277 277 277 277 276 277 277 276 276 275 275 275 275 276 276 276 277 277 277 277 277 278 278 278 279 279 279 279 280 280 280 281 282 282 283 283 283 283 283 283 283 283 284 284 285 285 285 286 286 286 286 287 287 287 287 287 287 287 287 287 287 287 287 286 286 286
281 280 280 280 280 280 281 281 280 280 280 280 280 281 280 279 277 276 276 276 276 276 276 275 275 275 274 274 274 274 274 275 275 276 276 276 276 276 276 276 277 277 277 278 278 278 278 279 279 280 281 281 282 282 282 282 282 282 282 282 283 283 284 284 284 285 285 285 285 286 286 286 286 286 287 287 287 287 287 287 287 286 286 286 285
280 280 279 279 279 279 279 278 278 278 279 279 279 278 278 276 274 274 274 275 275 275 275 275 274 273 273 273 274 274 274 275 275 275 274 274 274 275 275 275 275 276 276 276 276 277 278 278 279 280 280 281 280 280 281 281 281 281 282 282 283 283 283 284 284 284 285 285 285 285 285 286 286 286 286 286 286 286 287 286 286 286 286 285 285
279 279 278 278 278 278 277 276 277 278 278 277 277 276 275 273 273 272 272 272 272 272 273 273 273 273 272 272 273 273 273 273 273 273 273 273 273 274 274 274 273 274 274 275 275 276 277 277 278 278 278 278 278 278 279 279 279 280 281 282 282 282 283 283 284 284 284 284 285 285 285 285 286 286 286 286 286 286 286 286 286 286 285 285 284
278 278 277 277 277 276 276 277 277 277 276 276 276 275 274 272 271 271 270 270 270 270 271 272 272 272 272 272 272 272 272 272 272 272 272 272 272 272 272 271 271 272 272 272 273 274 274 274 275 275 275 275 275 276 276 277 278 279 280 281 281 282 282 283 283 284 284 284 284 284 285 285 285 285 285 286 286 286 286 286 286 285 285 284 284
277 277 277 276 276 276 276 276 276 276 276 276 275 274 272 271 270 270 269 269 269 270 270 270 271 271 271 271 270 270 270 270 270 270 270 271 271 271 270 269 270 270 270 271 271 271 271 272 272 272 272 272 273 274 275 276 277 277 278 279 280 281 281 282 283 283 283 283 284 284 284 284 285 285 285 285 285 285 286 286 285 285 285 284 284
276 276 276 275 275 275 275 275 275 275 275 274 273 271 270 269 269 269 269 269 269 269 269 269 270 270 270 270 269 269 268 269 269 269 269 269 269 269 268 268 269 269 269 269 269 269 269 269 269 270 270 270 270 272 273 274 274 275 276 277 278 279 280 281 282 282 283 283 283 284 284 284 284 285 285 285 285 285 285 285 285 285 284 284 284
275 275 275 275 274 275 275 274 274 274 273 271 270 268 268 268 268 268 268 268 269 268 268 268 268 268 268 268 268 268 268 268 268 267 267 267 267 267 267 267 267 267 267 267 267 267 267 267 268 268 268 268 269 270 271 271 272 272 273 274 275 277 278 280 280 281 281 282 282 283 284 284 284 284 284 285 285 285 285 285 285 284 284 284 283
274 274 274 274 274 274 274 273 273 272 270 269 268 267 268 268 268 268 268 268 268 268 268 268 268 268 268 268 267 267 267 267 267 267 266 266 267 266 266 266 266 266 266 266 266 266 266 266 266 267 267 267 268 269 269 269 270 270 270 271 272 274 275 277 277 278 278 279 280 281 282 283 283 284 284 284 284 284 285 285 285 284 284 283 283
274 273 273 273 273 273 273 272 271 270 268 267 267 267 267 267 267 267 267 267 267 267 267 267 267 267 268 267 267 267 267 267 266 266 266 266 266 266 265 265 265 265 265 265 265 265 265 265 265 265 266 266 267 267 268 268 269 269 269 269 270 271 272 273 274 274 275 277 278 279 280 281 282 283 283 284 284 284 284 284 284 284 283 283 283
273 272 272 272 272 272 272 271 269 267 266 267 267 267 267 267 267 267 267 267 266 266 266 267 267 267 267 267 267 267 267 266 266 265 265 265 265 265 265 265 264 264 264 264 264 264 264 264 264 264 265 265 266 266 267 267 267 268 268 268 268 269 269 270 271 271 272 273 275 277 278 279 280 281 282 283 283 284 284 285 284 284 283 283 282
272 272 271 271 271 270 270 268 267 266 266 267 267 267 267 267 267 267 267 266 266 266 266 266 266 267 267 266 266 266 266 266 265 265 265 265 265 265 264 264 264 264 264 264 264 263 263 263 263 264 264 264 265 265 265 266 266 267 267 267 267 267 268 268 269 271 271 272 273 275 277 278 279 280 280 281 282 283 284 284 284 283 283 282 282
271 271 271 270 270 269 268 267 266 266 267 267 267 267 267 267 267 267 266 266 266 266 266 266 266 266 266 266 266 265 265 265 265 264 264 264 264 264 264 264 264 264 264 264 264 264 263 263 263 263 264 264 264 264 265 265 266 266 266 266 266 266 266 267 268 270 270 270 271 273 275 277 278 278 279 280 281 282 283 283 282 282 282 281 281
270 270 270 269 268 267 267 266 266 267 267 267 267 267 267 267 266 266 266 266 266 266 265 265 265 265 265 265 265 265 265 264 264 264 264 264 264 264 264 264 264 264 264 265 265 264 264 263 263 263 264 265 265 265 265 265 265 266 266 266 266 266 266 266 267 269 270 270 271 272 274 275 276 277 278 279 280 280 281 281 281 281 281 280 279
270 269 269 268 267 266 266 266 266 266 266 267 267 267 266 266 266 266 266 265 265 265 265 265 265 265 265 265 264 264 264 264 264 264 264 264 264 264 264 263 263 263 264 264 264 265 264 264 264 264 264 265 265 265 265 265 265 265 265 265 265 265 265 265 267 269 270 271 272 272 273 274 275 276 277 278 278 279 279 279 279 279 279 278 277
269 268 267 267 266 266 266 266 266 266 266 266 266 266 266 265 265 265 265 265 265 265 264 264 264 264 264 264 264 264 264 263 263 263 263 263 263 263 263 263 263 263 263 263 264 264 264 264 264 264 264 264 265 265 265 265 265 265 265 265 265 265 265 266 268 269 270 271 272 272 272 273 274 275 276 277 277 278 278 278 278 278 277 277 276
268 267 267 266 266 266 266 266 266 265 265 265 265 265 265 265 265 265 265 265 265 264 264 264 264 264 264 264 263 263 263 263 263 263 263 263 263 263 263 262 262 262 263 263 263 264 264 264 264 264 264 264 264 265 265 265 264 264 265 265 265 265 265 266 268 269 269 271 272 273 273 273 273 274 275 276 276 276 277 277 277 277 277 276 276
267 266 266 266 266 266 266 265 265 265 265 264 264 264 264 264 265 265 265 265 265 265 264 264 264 264 264 263 263 263 263 263 263 263 263 263 263 262 262 262 262 262 262 262 263 263 263 263 263 263 263 264 264 264 265 265 264 264 264 264 265 265 265 266 267 268 269 270 272 273 273 273 274 274 275 275 275 275 275 275 276 276 276 276 275
266 266 266 266 266 266 265 265 264 264 264 264 264 264 264 265 265 266 265 265 265 265 264 264 264 264 263 263 263 263 263 262 262 262 262 262 262 262 262 262 262 262 262 262 262 262 263 263 263 263 263 263 263 263 264 264 264 264 263 264 265 265 266 266 267 268 269 270 271 272 273 273 274 274 275 275 275 275 275 275 275 275 275 275 274
266 266 266 265 265 265 265 264 263 263 263 263 263 264 265 265 266 266 265 265 265 265 265 264 264 264 263 263 262 262 262 262 262 262 262 262 262 262 262 262 262 262 262 262 262 262 262 262 263 263 263 263 263 263 263 263 264 263 263 263 264 265 265 266 267 267 268 269 270 271 272 272 273 274 274 274 274 274 274 274 274 274 274 274 274
266 265 265 265 265 264 264 263 263 263 263 263 264 264 265 265 265 265 265 265 265 265 264 264 264 263 263 263 262 262 262 262 262 262 262 262 262 262 262 262 262 262 262 262 262 262 262 262 262 262 262 262 263 263 263 263 263 263 263 263 264 265 265 265 266 267 267 268 269 269 270 271 272 273 273 274 274 274 274 274 274 274 273 273 273
Wind_Speed
10 10 9 8 8 7 7 6 6 5 5 5 5 5 5 5 5 5 6 7 8 8 8 8 8 9 9 10 10 10 10 10 10 10 11 12 13 14 15 16 18 19 20 21 21 21 22 23 25 26 25 26 27 28 29 28 27 27 27 28 30 28 28 26 19 23 36 35 29 32 33 31 33 34 34 36 37 37 38 40 40 40 41 42 42
10 8 7 7 7 6 6 5 5 4 4 4 4 4 3 2 2 3 3 4 5 5 5 5 6 7 8 9 9 10 10 10 10 11 11 12 13 14 14 15 17 18 19 21 21 21 22 24 26 25 24 24 26 27 29 29 28 29 29 28 31 31 29 30 26 23 31 36 30 30 33 32 33 35 35 36 37 37 37 38 38 39 40 41 42
10 9 9 8 8 8 7 6 6 6 5 5 4 4 3 2 2 2 2 3 3 4 5 7 7 7 7 8 9 9 9 9 9 10 11 12 14 14 15 15 17 19 20 22 24 24 24 26 28 28 26 26 29 30 30 31 30 30 31 30 31 33 31 30 31 27 29 37 35 31 32 33 34 35 35 35 36 35 36 37 37 38 39 39 41
12 12 12 11 10 10 9 9 8 8 7 7 6 7 6 6 5 5 6 6 6 7 8 9 10 10 10 10 10 11 11 11 11 10 10 11 12 14 15 16 18 19 21 23 24 24 25 27 29 29 28 29 31 32 31 31 31 30 32 33 33 35 34 31 32 32 30 34 38 36 32 33 36 36 34 35 36 35 36 38 38 38 39 39 41
13 13 12 12 12 11 10 10 9 9 9 9 9 9 9 8 8 8 8 8 8 9 10 11 12 13 13 13 14 14 14 13 13 12 12 11 12 13 14 15 16 18 20 22 23 24 25 27 28 28 28 29 31 31 31 30 31 31 32 34 34 34 34 32 33 35 33 33 39 41 36 34 37 38 35 34 36 36 36 38 39 39 39 40 41
14 13 13 12 12 11 11 11 11 11 10 10 11 11 10 10 9 9 10 10 11 12 12 13 13 14 14 15 15 16 16 16 16 16 15 14 14 14 15 16 17 19 20 22 22 23 24 26 27 27 27 28 30 31 31 31 31 32 32 34 35 33 33 33 33 33 34 35 38 40 39 36 35 36 36 34 33 35 35 35 37 37 37 39 41
14 14 13 13 13 13 13 13 12 12 12 12 12 12 12 12 12 12 12 12 13 13 14 14 14 14 14 14 15 16 16 17 17 17 17 17 17 17 17 18 20 21 22 23 24 25 25 26 27 27 26 28 29 30 31 31 31 32 33 34 34 32 32 33 32 31 33 34 35 36 38 38 35 35 36 34 32 34 32 30 32 34 34 35 39
15 15 15 15 15 15 15 14 14 14 13 14 14 14 14 13 13 13 13 13 13 13 13 13 13 13 14 14 15 16 16 16 16 17 17 17 18 18 19 21 22 23 24 26 26 26 27 27 27 28 28 28 29 30 30 31 31 33 34 33 32 32 32 32 32 31 30 31 32 34 34 35 36 34 33 30 28 29 29 27 31 34 32 32 37
17 17 17 17 17 17 16 16 15 15 14 15 15 14 14 13 13 12 12 12 12 12 12 13 13 13 14 15 16 16 17 16 16 17 17 17 18 19 20 21 22 24 26 27 28 28 29 29 29 29 29 30 30 31 30 30 30 33 36 33 31 32 31 31 30 29 28 27 29 31 29 30 34 31 28 27 27 28 29 28 31 35 32 31 37
18 18 18 18 17 17 17 16 16 15 14 14 14 14 13 12 11 11 11 12 12 12 13 13 14 15 16 16 17 18 19 19 18 18 18 18 19 20 22 23 24 25 28 29 31 31 31 31 32 31 31 32 32 32 32 31 31 32 35 34 33 33 33 32 31 29 26 24 27 28 25 27 34 31 27 30 30 28 29 27 28 33 29 26 31
19 18 18 18 17 16 16 16 15 14 14 13 13 12 11 11 11 11 11 12 12 13 13 14 15 16 16 17 18 19 20 20 20 20 20 21 22 23 24 25 26 27 29 30 32 33 33 33 33 33 33 34 34 34 34 34 33 33 34 34 33 34 34 35 35 32 27 24 28 29 26 28 35 35 31 32 31 28 29 28 28 28 23 17 20
19 19 18 17 16 15 15 15 14 14 13 12 11 11 10 10 11 10 11 12 12 13 13 14 15 16 16 17 18 18 19 19 19 20 20 21 22 23 24 26 27 28 29 30 32 33 34 34 35 35 35 35 35 35 35 36 36 35 34 34 33 33 34 35 37 36 32 28 29 31 32 32 35 37 34 31 29 29 28 28 28 27 24 21 19
19 18 17 16 15 15 14 14 14 13 12 11 10 10 9 9 10 10 11 11 12 12 13 14 15 15 16 17 17 18 19 19 19 19 19 20 21 23 24 26 27 28 29 30 32 33 34 35 36 36 36 35 35 36 36 37 38 37 36 35 35 35 34 34 36 37 37 36 34 36 41 39 35 37 38 32 28 28 27 26 27 27 27 26 27
18 17 16 15 14 14 13 13 13 12 11 10 9 8 9 9 10 10 11 12 13 14 14 15 15 16 17 18 18 19 19 19 19 19 19 19 20 21 23 24 26 28 29 30 31 32 33 33 34 36 37 36 36 36 36 37 37 37 37 36 37 37 36 36 36 35 36 39 40 42 47 46 41 42 44 38 33 32 30 28 28 28 30 31 34
17 16 16 15 14 13 13 12 11 10 9 9 8 9 9 10 10 11 12 13 14 15 15 16 17 17 18 18 19 20 20 20 21 20 21 21 21 22 23 24 26 28 29 30 30 31 32 31 33 35 37 38 38 36 35 35 35 36 37 38 39 39 39 39 38 36 36 38 40 43 46 49 48 47 47 44 40 39 37 34 33 34 34 31 32
17 15 15 14 12 12 11 10 10 9 8 8 9 9 10 11 11 12 13 14 14 15 16 17 18 19 20 20 21 22 22 22 23 23 24 24 24 25 25 26 28 30 31 32 32 31 31 31 32 34 36 38 39 37 35 33 33 35 37 38 40 40 41 43 40 37 38 38 39 41 44 46 48 47 48 46 44 43 39 36 36 35 32 25 24
16 14 13 12 11 10 9 9 8 8 8 9 10 10 11 12 12 13 14 15 16 17 18 19 19 20 21 21 22 24 24 24 24 26 26 25 26 27 27 28 30 32 34 35 34 33 33 32 32 33 35 38 39 38 35 32 32 35 36 38 40 40 43 46 42 37 36 36 37 40 41 43 45 46 47 46 45 44 38 34 35 33 25 15 15
14 13 12 11 10 9 8 8 8 8 9 9 10 11 11 12 13 14 14 15 16 17 18 19 19 20 21 22 22 24 26 26 25 27 27 26 26 27 28 29 31 33 35 37 37 36 36 35 34 33 34 37 38 37 35 32 32 34 35 36 37 39 44 46 41 36 36 34 35 36 38 41 43 44 45 45 45 43 38 37 38 33 24 15 14
13 12 11 10 9 8 8 8 8 8 9 9 10 11 11 12 13 13 14 15 16 17 18 19 20 21 22 23 23 24 27 28 26 26 28 27 26 27 28 29 31 33 35 37 39 39 38 38 38 36 35 35 36 37 36 34 33 34 34 34 34 38 43 43 39 38 38 36 36 37 38 40 42 42 43 44 44 42 40 41 40 34 27 24 22
13 12 11 10 9 8 7 7 7 8 9 9 10 11 11 12 12 13 14 15 16 17 18 20 22 23 23 24 24 24 26 28 27 26 27 28 27 27 27 27 29 32 33 35 37 39 40 41 42 41 38 37 38 38 38 37 36 35 35 34 34 37 42 42 40 41 41 40 41 41 41 42 42 41 42 42 42 42 40 39 40 37 32 29 28
12 11 10 9 8 8 7 7 7 7 8 9 10 10 11 12 12 13 14 16 16 18 19 21 23 25 25 25 26 26 27 28 28 28 28 28 27 27 27 27 27 28 30 32 34 37 39 42 44 45 43 43 43 41 40 39 38 38 37 37 37 40 41 41 42 43 43 41 41 41 41 42 41 39 39 39 39 39 38 36 37 38 36 34 32
12 11 10 9 8 7 7 7 7 7 8 9 9 10 11 12 12 13 15 16 17 19 21 23 25 27 27 27 28 29 29 29 29 30 29 28 28 27 26 25 24 24 27 31 34 36 38 41 44 46 45 46 45 43 42 42 41 41 40 40 41 41 41 41 41 41 40 39 38 37 38 38 38 37 36 36 35 35 35 35 35 36 38 40 39
11 10 9 8 7 7 7 6 6 7 8 8 9 9 10 11 12 14 16 17 18 20 22 24 26 27 29 30 31 31 31 32 31 31 30 29 28 26 23 23 23 25 28 31 34 36 39 41 43 45 45 46 46 45 45 45 44 44 44 43 43 43 43 41 40 39 38 36 35 34 34 34 35 35 34 33 33 33 33 34 35 36 37 40 42
10 10 9 8 7 6 6 6 6 7 7 8 8 10 11 12 13 15 17 18 19 21 22 23 25 26 28 31 33 33 33 33 33 32 30 29 27 25 25 28 29 29 30 32 34 36 38 40 42 43 45 46 46 46 47 47 47 46 46 46 45 44 42 40 37 36 34 32 31 30 31 31 32 32 32 33 34 35 36 36 36 37 38 39 41
10 9 8 7 7 6 5 6 6 6 7 8 9 10 12 13 14 16 17 17 18 19 20 20 22 24 25 28 32 35 35 33 33 33 31 29 29 29 30 32 32 30 31 33 34 36 37 39 41 43 44 45 46 46 47 48 48 48 47 47 45 42 39 37 34 32 30 29 27 28 31 33 33 33 34 36 36 36 36 36 36 36 36 36 37
9 8 7 6 6 5 5 5 6 6 7 9 10 11 12 13 15 16 16 16 16 17 18 19 21 23 24 27 31 34 35 33 33 33 32 32 33 34 35 35 34 33 33 34 35 37 39 40 42 43 44 45 45 46 47 48 49 48 47 45 41 38 35 34 32 30 28 28 27 27 29 32 32 33 34 34 34 35 35 34 34 32 31 31 32
8 7 6 5 5 4 5 5 6 6 7 8 9 10 11 12 14 15 15 15 15 15 16 18 21 22 24 26 29 33 34 32 31 33 35 37 38 39 39 38 37 37 36 36 38 40 42 42 42 43 43 44 44 44 44 44 44 44 43 41 39 37 36 36 35 33 31 30 30 30 31 30 31 32 33 32 33 34 34 32 30 28 28 28 27
8 7 6 5 4 4 4 5 5 6 7 8 9 10 12 12 13 14 14 13 14 15 15 17 18 19 21 24 28 31 33 31 30 32 35 36 37 40 41 40 38 38 38 38 40 42 43 43 42 41 40 40 40 40 40 39 38 38 39 39 40 40 39 38 36 33 32 32 32 32 31 30 30 32 33 33 34 33 32 30 29 28 28 25 23
7 6 5 5 4 4 4 5 5 6 7 9 10 11 12 13 12 12 11 11 12 13 13 14 16 17 18 21 23 26 30 32 32 32 33 33 33 35 37 37 37 37 37 37 39 40 40 39 38 37 36 35 36 37 36 36 36 36 36 38 39 38 37 34 32 32 32 32 31 31 31 31 32 33 33 31 31 30 28 28 28 28 26 24 21
7 6 5 5 4 4 4 4 6 7 9 11 11 12 12 12 12 11 10 11 12 12 11 12 13 14 17 18 18 18 23 28 31 32 33 33 34 34 34 34 35 35 35 35 35 35 33 32 32 32 32 33 33 33 33 34 35 36 39 41 41 40 38 36 35 34 32 30 30 31 31 31 31 30 29 28 27 27 27 28 28 26 23 21 19
6 6 5 5 4 3 3 4 5 7 9 11 13 14 14 14 12 9 9 12 14 13 11 11 12 12 15 18 20 19 20 22 26 29 31 33 35 36 37 36 35 33 33 32 30 29 29 29 29 30 30 30 30 31 34 36 36 37 41 42 41 40 39 38 37 36 34 33 33 32 30 29 29 28 26 26 26 27 28 28 26 24 23 21 19
6 6 5 5 4 3 3 4 5 7 8 10 11 13 15 16 14 10 10 13 15 14 12 13 14 15 16 18 21 24 24 24 25 27 29 31 33 34 35 36 35 33 30 27 24 25 27 28 30 31 30 30 32 33 35 36 36 37 38 38 39 40 39 38 38 37 35 34 34 33 32 32 31 29 28 27 27 27 26 25 22 21 21 21 19
6 6 5 5 4 3 3 4 5 6 7 8 10 11 13 15 15 15 15 15 14 12 13 17 19 19 18 17 18 21 23 25 26 27 28 29 30 31 32 33 32 29 26 25 24 25 27 28 29 29 29 30 33 35 35 35 36 37 36 36 37 39 40 39 38 36 34 33 33 32 33 32 30 29 28 28 27 25 24 23 22 21 19 18 17
6 6 5 4 4 3 3 3 4 5 6 7 8 9 10 11 13 16 19 18 16 16 18 21 22 22 21 19 17 18 21 24 25 27 27 27 27 28 29 29 27 25 23 22 23 24 25 27 27 28 29 31 33 34 35 35 36 36 36 37 38 39 40 38 35 33 33 34 33 32 32 32 30 28 27 26 25 25 23 22 20 18 17 16 15
7 6 6 5 4 4 3 2 3 3 4 5 6 6 8 9 11 13 15 17 19 21 22 23 23 23 21 19 17 18 20 22 24 25 25 24 25 26 26 26 27 27 26 24 23 23 24 25 27 28 30 32 33 34 35 36 36 37 37 37 38 40 39 37 34 34 34 33 32 31 31 31 30 28 27 25 25 24 22 21 20 18 17 17 15
8 7 6 6 5 4 3 2 2 2 2 3 4 5 6 8 9 10 11 13 16 19 22 24 23 22 20 19 19 20 21 21 22 22 21 20 21 23 24 25 25 25 25 25 24 23 23 23 25 28 30 31 33 34 35 36 37 37 37 36 36 37 37 35 34 34 34 33 32 31 30 29 29 28 27 26 25 24 23 21 20 18 18 18 17
9 8 7 6 5 4 4 3 3 2 1 2 3 4 5 6 7 9 10 12 15 17 20 22 24 23 22 21 22 24 23 22 20 19 18 18 19 19 21 22 23 23 23 23 23 23 23 24 25 27 29 31 32 32 33 34 34 35 35 35 34 34 34 34 34 34 33 31 30 30 29 28 27 27 26 25 24 23 22 20 19 18 18 19 17
9 8 7 6 6 5 5 4 4 2 2 2 2 3 3 4 6 8 9 11 13 15 17 19 21 22 23 24 25 25 25 23 22 21 21 21 20 20 21 22 22 22 23 23 22 22 24 26 26 27 29 30 30 29 30 32 32 32 33 33 33 32 33 34 34 34 33 31 30 30 29 28 27 26 25 24 22 22 21 19 18 16 16 16 14
10 9 8 7 6 6 6 5 4 4 3 1 0 1 2 4 5 7 8 10 12 13 15 17 19 20 22 25 26 26 25 24 24 25 25 24 23 22 23 24 24 24 24 24 24 24 24 26 28 29 30 29 28 28 30 30 31 32 33 33 32 31 32 32 32 33 33 31 30 30 29 28 27 26 25 23 22 21 21 19 18 16 14 14 13
11 10 9 8 8 7 7 6 5 4 3 3 3 2 1 3 4 5 7 9 11 12 13 15 18 19 20 22 24 24 24 24 24 24 25 24 24 24 24 24 25 26 26 26 26 26 26 28 29 29 29 29 29 29 30 30 30 31 32 32 31 30 30 32 33 33 33 32 31 30 30 29 28 27 25 23 23 22 21 19 18 17 15 14 12
12 11 10 10 8 8 7 6 5 4 4 4 3 1 1 2 4 5 7 8 10 12 13 15 17 18 19 20 20 20 20 23 24 24 24 23 23 23 23 24 25 26 27 28 29 28 28 29 30 30 29 30 31 31 30 30 31 31 31 32 31 29 31 36 40 40 38 36 33 31 31 31 29 27 24 24 24 23 21 19 17 15 13 11 9
12 12 12 10 9 8 7 6 6 6 6 4 2 1 2 4 5 5 7 8 10 12 14 16 18 18 19 20 20 18 19 22 23 23 23 23 22 23 23 23 24 25 27 28 29 29 29 30 30 30 30 31 32 32 31 31 31 31 31 32 31 30 33 40 45 45 43 40 36 33 32 32 29 27 25 24 23 20 17 15 12 10 7 5 5
13 13 12 11 9 8 7 7 7 7 5 4 3 3 4 5 5 6 7 9 11 12 15 17 19 19 20 21 20 19 21 22 23 24 24 24 23 24 24 25 25 25 26 27 27 27 28 28 29 30 30 30 30 31 30 29 30 30 31 32 31 31 35 41 44 44 44 43 39 36 33 31 29 27 25 23 21 17 13 9 7 4 2 2 4
14 13 12 10 9 8 8 7 7 6 5 4 4 4 4 4 5 6 8 10 11 13 15 17 19 20 22 22 22 22 23 24 25 25 25 25 25 25 25 25 26 26 26 26 26 26 27 27 28 29 30 30 29 29 29 28 28 28 30 31 30 31 35 39 41 41 41 41 39 36 33 30 28 26 24 22 19 16 13 10 7 4 3 4 6
14 13 12 11 10 9 9 8 7 7 6 5 5 5 5 5 6 7 9 11 12 14 16 17 19 20 22 23 23 24 25 25 26 26 26 27 27 27 26 26 27 27 27 27 26 26 26 26 27 28 29 29 29 29 28 28 26 27 28 29 29 31 34 37 37 37 37 37 35 33 32 30 26 24 22 20 17 14 13 11 8 7 6 7 8
14 13 12 11 10 10 9 8 8 8 7 7 7 7 7 7 8 8 10 11 13 14 16 18 19 20 22 23 24 24 25 26 26 27 27 28 28 28 28 28 27 27 27 27 26 26 26 25 26 27 28 29 29 29 28 27 26 26 27 28 29 31 34 35 35 34 34 34 32 30 29 27 25 22 20 18 15 14 12 11 9 9 9 9 10
14 13 11 11 10 9 9 9 8 8 8 8 9 9 8 8 8 9 10 12 13 14 16 18 19 20 22 23 24 25 25 26 26 27 28 28 28 29 29 29 28 28 28 27 26 26 26 25 25 26 26 27 28 28 28 27 26 27 28 28 29 31 33 33 33 32 31 30 29 28 26 24 23 21 19 17 15 14 12 11 11 10 9 10 11
14 13 12 11 10 10 10 9 9 10 10 9 9 9 9 9 9 10 11 12 13 15 17 18 19 21 22 24 25 25 26 27 27 28 28 29 29 29 29 28 29 29 29 29 28 27 26 25 25 25 25 26 26 27 28 28 27 27 28 29 29 29 30 31 30 30 30 28 26 26 25 22 20 19 18 16 15 14 13 12 12 10 10 11 11
14 13 12 12 11 11 11 11 11 11 10 10 10 10 9 9 9 10 11 13 14 16 18 19 21 22 24 25 27 27 27 28 29 29 29 30 30 30 29 29 29 29 30 30 29 28 27 26 26 25 25 26 26 26 27 27 27 26 28 29 29 28 28 28 28 28 28 27 25 24 23 22 19 17 16 15 14 13 13 12 12 11 11 11 11
14 13 13 13 13 13 12 12 12 12 11 11 11 10 9 9 10 11 12 14 16 17 19 20 22 24 26 27 28 29 29 29 30 30 31 31 31 30 30 30 30 30 30 30 30 29 28 27 26 26 26 26 25 25 25 26 26 25 26 28 28 27 27 28 27 26 26 26 24 23 22 21 19 17 15 14 13 13 12 11 11 11 11 12 12
14 14 14 14 14 13 13 13 13 12 11 10 10 9 9 10 11 13 14 16 17 19 20 22 23 25 27 28 29 29 29 30 30 31 31 32 31 31 31 31 31 31 31 31 31 30 29 28 27 26 26 25 25 25 25 25 25 24 25 26 27 26 26 27 26 25 25 24 23 22 21 19 18 17 15 14 13 12 11 10 10 10 11 11 11
Wind_Direction
162 169 173 174 179 183 190 199 209 220 227 232 231 229 239 250 258 267 274 279 283 288 294 296 292 287 286 286 286 284 284 287 291 290 285 283 283 283 283 284 284 285 286 286 286 287 288 287 286 285 283 280 278 278 276 273 272 270 269 267 264 260 258 257 260 276 281 280 278 280 283 282 280 278 277 277 276 276 276 276 276 276 277 278 278
161 167 168 169 175 179 183 184 181 185 185 187 191 194 209 241 267 288 297 301 304 312 322 326 318 305 299 299 301 299 294 287 283 282 281 282 283 284 284 284 287 288 287 285 283 283 284 284 284 285 284 280 277 277 276 275 275 273 270 267 265 262 256 255 258 268 279 281 280 281 283 281 279 279 278 277 277 277 274 272 271 271 273 275 277
159 160 160 160 162 161 158 152 147 147 149 151 145 130 117 101 71 37 33 26 12 10 12 11 7 359 347 337 334 331 327 320 307 296 290 286 284 284 283 281 282 283 283 283 284 284 283 281 281 282 283 282 280 280 280 280 278 275 272 268 265 264 260 256 258 262 273 281 282 280 282 281 279 279 280 280 279 277 274 272 271 270 270 272 274
147 147 146 143 141 139 134 130 131 132 129 125 115 105 96 88 77 64 58 51 43 38 34 30 27 23 20 12 6 1 356 351 344 333 320 307 297 293 290 285 283 283 284 285 286 287 286 284 284 285 285 284 283 283 283 282 280 276 274 272 268 267 265 260 258 260 267 278 282 280 280 281 280 280 280 280 278 275 273 273 273 271 271 271 271
137 135 136 135 131 128 125 122 122 121 117 111 102 96 89 83 76 68 62 55 49 45 40 36 33 29 26 22 17 13 9 4 358 351 343 334 323 314 310 304 299 296 293 292 292 291 289 288 288 290 290 288 287 287 285 283 282 278 275 273 271 269 268 264 260 260 261 268 277 280 281 279 280 281 279 277 277 276 274 273 272 270 269 269 268
136 135 135 132 127 123 121 119 119 117 112 105 99 93 87 80 74 67 61 56 52 48 44 39 34 29 25 21 16 13 11 8 4 359 354 346 339 331 324 317 311 307 304 302 300 297 295 294 293 293 292 289 288 288 287 285 283 280 277 276 275 272 270 267 263 261 260 263 270 278 281 280 279 280 280 277 276 275 274 274 273 269 266 267 267
139 136 133 128 124 122 120 118 117 112 106 101 94 88 83 76 70 65 60 57 53 49 46 41 36 31 26 21 16 12 10 7 2 358 353 347 341 335 328 323 318 315 312 310 308 305 301 299 298 297 295 291 290 290 289 287 285 283 280 279 279 276 273 271 268 263 261 263 267 272 277 279 279 278 280 280 276 272 269 270 273 271 267 266 267
137 134 129 124 120 118 116 112 108 103 99 94 88 83 79 74 70 66 61 58 54 49 45 41 35 30 25 20 16 12 9 7 1 355 351 345 340 335 330 326 321 318 317 314 312 310 307 304 303 301 300 297 295 293 291 288 286 285 284 282 280 278 275 273 271 267 263 264 267 270 274 278 278 278 279 277 272 268 265 262 266 270 270 268 268
133 129 124 119 116 113 110 106 104 101 97 92 88 84 80 76 73 69 63 57 51 45 40 33 27 23 19 15 12 9 7 5 0 354 348 343 337 333 328 325 322 319 318 317 316 314 312 311 309 308 307 305 302 299 296 292 286 283 283 283 280 278 277 275 272 269 267 266 268 271 274 275 276 277 276 272 267 269 270 262 259 267 270 269 269
129 126 120 114 112 111 109 107 106 104 98 93 89 85 81 76 71 63 55 48 40 34 28 22 18 14 11 9 7 6 5 2 358 353 346 341 335 331 328 326 324 321 319 319 319 318 317 315 313 312 310 308 307 304 301 297 291 285 283 282 278 276 276 275 273 270 268 267 269 272 273 273 274 275 274 273 272 272 270 260 256 264 269 268 271
125 122 116 114 115 114 112 110 107 102 95 90 85 78 71 63 55 48 42 35 29 24 20 17 15 11 9 7 4 4 3 359 356 351 345 340 334 330 328 326 324 323 320 318 317 317 317 315 314 313 311 310 309 307 304 302 298 292 289 285 280 275 272 271 272 271 268 267 269 271 270 270 274 276 274 275 276 272 268 261 256 259 261 259 270
123 119 116 117 118 115 112 107 101 95 87 81 74 65 58 50 44 39 34 30 24 20 17 15 13 9 6 4 3 3 2 357 353 349 344 339 333 328 325 323 322 321 319 317 316 315 314 314 313 312 311 310 309 307 305 303 300 297 294 291 286 280 273 269 268 269 269 268 269 270 269 269 273 275 275 275 276 274 270 264 257 254 254 252 257
124 120 119 120 117 111 107 101 94 88 80 74 68 60 53 46 42 36 32 27 20 16 15 13 11 7 3 2 1 1 1 356 353 350 345 339 333 327 324 323 321 320 320 318 316 315 313 313 312 312 311 310 307 305 304 302 301 299 296 293 290 285 280 274 270 267 266 266 265 266 268 269 271 274 275 277 278 276 272 266 260 255 251 251 255
125 123 120 118 113 108 103 98 92 87 81 75 68 61 53 44 40 34 26 21 15 12 11 8 7 5 1 358 359 0 1 358 354 352 348 343 336 330 326 324 322 321 320 319 317 316 314 312 310 310 312 310 307 304 302 300 299 298 295 293 289 286 283 280 275 271 267 263 261 263 267 270 271 273 277 278 277 275 273 270 268 262 258 258 262
124 123 120 115 111 107 102 98 94 88 82 76 65 57 48 38 33 28 21 16 12 9 6 4 3 3 0 356 354 357 0 359 356 353 351 347 341 335 331 328 324 323 322 321 320 317 316 314 310 309 310 309 308 305 301 299 298 296 293 291 289 287 284 281 277 273 270 266 262 263 267 271 273 274 276 278 276 274 274 273 273 271 269 270 270
123 122 119 114 110 106 100 97 92 84 76 66 55 47 40 31 25 21 17 14 11 8 6 4 1 359 359 356 351 352 358 359 357 354 352 349 345 340 336 332 328 326 325 325 323 320 317 315 311 309 308 308 309 307 302 299 297 293 291 290 289 287 285 284 281 276 273 271 268 267 269 272 274 275 276 277 276 275 276 276 274 271 269 269 269
122 120 117 112 107 103 96 90 81 72 62 52 43 38 33 27 21 16 13 11 11 8 5 4 1 357 356 356 352 350 355 359 357 354 353 350 346 341 337 333 329 326 326 325 323 320 318 316 312 309 306 307 309 308 305 302 297 292 290 289 289 288 287 287 287 282 278 276 273 272 272 273 275 276 276 276 275 275 274 272 269 267 263 259 261
122 120 116 110 104 97 89 80 70 60 51 43 38 33 28 25 21 16 12 10 10 8 3 360 360 358 356 356 355 351 353 358 358 354 353 351 347 342 337 332 328 326 326 325 323 320 318 317 314 310 306 307 310 310 309 306 300 294 292 290 288 287 287 290 292 290 287 284 279 277 276 276 276 276 276 276 275 273 268 264 264 265 260 253 256
124 121 115 109 105 97 86 77 66 55 47 40 35 31 27 25 21 16 13 10 7 6 3 358 358 0 358 357 356 354 352 354 356 354 351 349 346 342 336 330 326 325 324 322 321 320 318 317 316 312 310 309 310 309 308 306 301 297 294 291 287 285 287 292 296 295 293 291 287 284 281 279 278 277 276 276 275 272 265 261 261 261 257 255 256
126 124 119 114 108 99 88 76 62 53 48 41 34 29 26 23 19 16 15 12 8 6 4 359 357 357 357 355 355 354 351 350 352 352 348 345 344 341 337 330 324 323 322 319 317 317 316 316 315 313 312 311 309 308 307 305 302 298 295 290 285 286 291 295 296 295 294 292 289 287 284 282 280 278 276 276 274 272 267 262 258 256 254 256 257
131 129 124 117 110 99 88 75 61 53 47 42 36 30 26 23 20 17 15 12 9 6 3 359 354 353 354 354 352 352 351 349 348 347 345 344 344 342 338 333 328 324 320 316 314 313 313 313 312 312 312 311 310 309 306 304 302 298 295 290 288 290 293 294 293 293 292 290 288 287 285 283 281 279 277 276 274 273 270 265 260 256 253 254 256
135 131 124 117 108 96 85 72 60 52 43 38 35 29 26 26 22 18 15 11 8 6 2 357 353 350 349 349 349 348 348 346 345 344 344 344 343 343 341 338 335 331 325 319 314 312 311 310 309 309 310 311 310 309 307 304 302 299 296 294 294 294 293 292 290 290 288 287 285 284 282 281 279 278 278 277 276 275 273 270 264 259 255 254 254
134 128 121 114 105 95 85 71 59 52 42 36 34 30 27 27 23 17 14 11 8 6 3 358 353 349 346 345 345 345 345 344 343 344 344 343 343 343 339 331 327 327 323 317 313 311 310 308 308 309 310 310 309 308 307 305 302 300 299 298 297 296 295 292 289 287 285 282 281 279 278 278 278 278 279 278 278 278 276 274 269 264 260 258 256
131 124 120 113 103 96 86 73 62 54 46 38 34 30 25 24 22 18 15 13 8 5 2 358 354 350 345 342 342 342 342 342 342 342 344 344 341 337 331 325 324 324 320 315 313 311 309 308 308 309 309 309 308 307 306 304 302 301 301 301 300 298 296 292 287 285 282 279 277 277 277 277 278 279 280 281 282 282 279 277 274 269 263 260 259
130 125 122 115 107 99 89 79 68 58 50 40 33 29 23 20 20 18 15 13 9 5 3 359 354 349 344 340 339 338 339 340 340 342 343 341 336 332 329 327 326 325 321 317 314 312 308 307 307 307 307 307 307 306 305 303 304 304 304 304 303 300 297 292 287 283 278 275 274 274 276 279 280 281 283 283 283 282 281 279 276 271 265 261 259
131 127 123 117 110 100 88 79 67 53 47 40 32 27 22 18 17 17 14 12 10 7 2 357 353 348 344 339 336 335 336 338 339 340 340 338 334 332 331 329 328 326 323 320 317 313 310 309 308 308 307 307 306 305 304 304 305 306 305 305 304 301 298 295 290 284 278 275 274 273 275 279 282 284 285 284 282 281 280 278 274 269 263 259 257
133 131 126 118 107 92 77 69 58 47 41 35 30 27 23 19 17 16 15 11 9 7 0 355 352 347 341 337 335 333 333 335 338 339 338 336 334 332 331 330 329 329 326 322 319 316 313 311 310 309 308 308 307 305 304 304 305 306 305 305 303 300 298 296 290 284 280 278 278 278 278 281 284 286 285 283 281 279 277 275 270 267 264 260 254
139 135 128 116 100 83 70 58 48 41 33 27 25 23 18 16 19 22 19 13 7 2 355 351 348 343 338 336 334 332 331 332 336 337 335 333 331 330 329 329 328 327 324 322 319 316 313 312 312 311 311 310 309 307 306 306 305 303 302 302 301 299 298 295 289 283 280 280 279 279 280 281 283 284 282 279 277 276 274 272 269 266 264 259 251
141 133 125 116 101 87 73 53 38 28 22 21 22 21 17 14 17 23 24 18 9 1 351 346 345 342 338 337 336 332 328 327 329 330 330 328 327 326 325 324 323 322 320 319 317 315 314 313 313 313 313 311 308 306 305 305 304 302 302 303 302 301 298 296 293 290 288 285 282 280 281 281 280 280 278 276 276 275 274 273 270 267 263 256 249
142 135 129 122 110 97 77 55 36 23 15 11 10 12 16 18 19 22 22 14 10 7 1 354 352 347 340 337 334 328 321 320 323 327 328 327 326 324 321 320 320 319 319 319 318 315 313 312 312 312 312 310 308 307 307 309 310 310 313 313 312 310 308 306 304 302 298 295 290 286 284 283 281 280 279 278 279 281 280 277 272 266 259 252 248
149 143 138 131 123 109 80 54 36 25 18 11 4 0 2 10 23 32 19 6 9 18 20 11 3 355 343 336 333 329 324 322 324 327 328 327 326 324 322 322 323 322 323 323 321 316 315 314 313 313 313 311 310 311 312 315 315 316 317 317 316 315 314 311 309 308 305 303 300 297 292 289 286 284 281 281 284 285 283 279 271 261 254 251 248
157 152 148 142 131 109 78 54 39 31 24 14 7 0 355 359 12 21 11 6 14 24 24 12 2 356 350 342 337 334 333 331 329 328 328 327 325 324 324 324 325 327 330 330 325 320 317 315 313 314 314 313 314 315 315 316 316 316 316 315 314 314 313 311 310 308 306 303 301 298 296 293 289 287 286 286 287 284 280 276 268 259 254 251 247
166 161 155 147 135 112 83 62 46 37 27 15 10 8 2 359 360 358 357 6 17 20 11 4 0 357 354 347 340 335 332 332 331 330 329 328 327 327 326 326 326 330 335 335 329 323 320 317 315 316 317 318 319 319 318 318 317 316 314 312 312 313 313 312 310 306 304 303 301 298 298 295 291 288 288 288 286 282 278 275 270 261 255 250 247
168 165 159 149 136 118 98 75 51 37 30 20 13 10 8 6 1 355 353 356 358 356 356 359 0 359 355 349 343 339 335 333 332 331 331 331 331 331 330 329 331 337 342 341 335 330 328 326 324 324 324 323 322 321 321 321 319 317 316 315 315 316 316 315 312 309 307 307 305 301 300 299 295 292 290 289 287 283 277 275 271 262 253 249 247
175 170 162 151 139 128 116 90 62 45 32 23 15 10 9 10 7 1 355 349 344 342 345 351 355 356 354 350 345 341 337 333 332 333 333 334 335 336 337 338 340 343 346 347 345 341 337 333 330 328 326 324 323 323 323 322 321 320 319 318 318 320 320 319 316 314 314 312 310 307 304 301 299 296 293 291 289 285 279 275 271 264 254 249 246
178 171 162 157 152 147 142 123 93 77 43 18 15 17 16 11 4 358 352 348 344 340 340 342 346 350 352 349 344 340 338 336 334 333 334 336 338 341 343 342 340 340 341 343 343 341 339 335 331 328 327 325 324 324 325 324 325 325 324 323 322 321 321 321 320 319 318 316 314 311 308 305 303 301 299 295 291 288 283 278 273 266 256 250 247
175 172 167 165 165 160 153 146 140 130 90 46 32 23 14 3 356 352 350 349 346 341 337 337 340 342 344 345 343 341 340 337 335 334 335 338 341 344 343 340 336 335 336 337 338 337 336 336 334 330 328 326 324 325 327 328 328 328 328 328 326 324 323 324 324 324 322 320 317 314 311 309 308 306 304 301 297 294 288 281 276 269 258 252 248
176 175 172 169 169 170 168 163 161 151 118 88 47 10 350 345 350 354 352 349 342 335 333 335 335 334 335 338 341 342 340 338 338 339 340 342 343 343 342 339 337 335 333 333 334 334 333 334 334 331 330 329 326 326 329 329 329 330 332 332 331 330 332 332 332 332 331 327 325 324 320 317 316 314 311 307 305 302 296 287 279 271 260 253 247
178 176 174 173 175 178 178 174 167 155 140 140 217 290 314 341 356 354 346 340 334 331 331 330 329 330 334 336 339 341 339 338 339 339 339 340 341 340 340 339 338 337 334 332 333 333 331 332 333 332 333 332 330 330 331 331 330 333 337 337 337 337 339 339 338 337 336 333 331 331 331 328 325 322 318 315 311 308 303 295 284 271 259 251 243
181 178 177 178 180 182 180 173 164 158 170 210 228 234 302 348 350 339 332 330 327 327 327 324 324 330 334 335 336 337 335 332 332 333 334 335 335 336 338 338 337 336 335 333 333 333 332 332 332 332 333 334 333 332 333 334 334 335 338 341 340 337 338 341 341 338 337 335 333 333 333 333 331 328 324 320 316 312 306 298 287 273 260 251 243
182 181 181 181 182 183 180 172 168 181 210 230 230 222 336 331 321 319 323 325 322 320 320 318 321 328 332 330 330 331 327 324 325 327 329 330 331 332 334 335 335 335 335 333 334 334 333 332 332 332 333 334 335 335 334 335 337 338 339 341 341 337 339 345 348 346 343 340 336 334 335 335 333 332 330 328 325 318 308 300 291 278 264 253 242
186 186 184 181 181 181 177 175 187 208 221 222 215 242 291 294 303 314 320 322 320 318 316 316 318 322 324 325 325 324 320 320 322 323 325 327 328 328 329 331 333 334 335 334 335 335 334 333 334 334 334 335 337 336 334 334 337 338 339 340 340 338 340 346 350 350 349 346 341 338 337 337 336 336 336 338 339 333 319 308 299 285 268 250 221
190 189 186 181 182 186 186 188 199 211 215 215 227 254 270 282 303 317 317 316 318 316 313 312 313 314 316 320 322 320 317 318 319 320 322 324 325 325 327 329 331 333 336 338 339 338 336 334 334 336 337 338 339 338 335 334 336 338 340 341 340 339 342 346 348 349 349 349 346 342 339 338 340 342 344 346 350 350 343 337 332 319 283 190 168
190 188 184 181 182 188 193 198 207 215 217 227 248 263 275 288 302 310 310 311 314 313 310 309 309 310 313 317 319 317 315 315 317 317 318 320 321 322 325 328 329 331 334 338 341 342 340 337 336 337 339 342 344 343 341 340 340 340 342 342 341 340 342 344 345 346 348 349 348 345 341 339 341 346 350 352 356 0 4 10 18 31 72 112 120
191 187 183 181 184 191 196 202 215 227 233 241 254 267 279 285 292 302 307 309 310 309 307 307 308 309 312 314 315 313 312 312 314 315 315 315 317 319 322 325 326 328 331 335 338 341 341 340 340 339 340 343 346 346 345 345 345 343 343 343 343 342 342 342 344 347 349 350 349 347 344 343 344 349 355 358 2 8 15 21 32 49 69 88 98
193 189 187 187 190 197 202 207 217 229 239 249 259 268 276 282 289 300 305 307 308 308 307 307 308 309 311 312 311 310 310 311 313 314 315 314 315 316 319 321 322 324 327 331 335 338 339 339 340 340 340 342 344 345 346 347 346 345 345 346 345 345 345 346 348 350 351 351 351 350 347 346 349 355 360 3 8 16 23 31 41 54 72 87 96
196 194 196 198 200 205 211 215 223 234 242 249 257 266 276 286 295 303 307 309 310 308 306 307 309 310 310 310 309 308 309 310 312 313 313 314 315 317 319 319 320 321 323 326 330 334 336 337 338 339 339 340 342 343 344 345 346 345 347 348 347 347 348 349 351 353 353 353 354 354 352 350 354 1 6 10 16 22 29 37 46 60 78 92 101
200 200 204 210 214 219 224 226 232 239 245 251 259 266 275 287 297 305 309 311 311 309 308 309 311 311 310 309 308 308 308 309 310 311 311 312 314 317 318 319 319 320 320 323 326 328 331 333 335 336 337 338 340 341 342 343 344 344 345 347 348 348 349 350 353 354 355 355 356 357 356 355 358 4 10 16 22 29 37 43 49 63 80 91 101
207 208 213 219 225 230 234 236 239 243 247 253 260 266 276 288 298 305 309 310 309 308 309 309 310 310 309 308 307 307 307 307 308 309 309 311 313 315 317 318 319 319 319 321 324 326 327 328 329 332 334 335 336 338 339 340 342 342 342 343 344 346 348 350 353 355 357 358 359 0 359 359 1 7 13 20 25 32 41 47 53 64 77 87 96
215 218 222 227 231 235 238 239 241 245 248 251 259 267 279 289 296 302 306 306 306 308 309 310 310 309 308 307 305 305 305 306 306 307 307 308 310 312 314 315 316 318 319 320 322 324 326 325 325 327 329 330 333 335 335 336 339 340 338 337 340 345 347 349 351 355 358 359 1 3 2 1 1 5 12 19 25 31 40 49 56 65 74 82 90
223 226 230 233 234 236 237 237 240 244 247 252 260 271 281 288 295 299 301 302 304 307 309 309 309 307 306 305 305 304 304 305 306 306 306 307 309 310 311 312 313 314 316 318 320 323 325 325 325 325 325 325 327 331 331 332 335 336 334 333 337 343 346 346 349 353 356 358 1 4 5 3 2 5 10 16 21 27 37 50 62 71 78 84 89